Concord, NH

10:34 AM EDT on October 17, 2017 (GMT -0400)
Concord Municipal

Weather History for KCON - May, 2012

Change the Weather History Date:

Monday, May 14, 2012

  Actual Average Record
Temperature  
Mean Temperature 60 °F 55 °F  
Max Temperature 66 °F 68 °F 91 °F (1961)
Min Temperature 53 °F 42 °F 26 °F (1996)
Degree Days  
Heating Degree Days 5 10  
Month to date heating degree days 154 170  
Since 1 July heating degree days 5895 7017  
Cooling Degree Days 0 0  
Month to date cooling degree days 0 0  
Year to date cooling degree days 9 2  
Growing Degree Days 10 (Base 50)    
Moisture  
Dew Point 54 °F    
Average Humidity 82    
Maximum Humidity 100    
Minimum Humidity 64    
Precipitation  
Precipitation 0.25 in 0.10 in 2.43 in (2006)
Month to date precipitation 2.83 1.57  
Year to date precipitation 11.40 13.57  
Snow  
Snow 0.00 in 0.00 in 0.00 in (2002)
Month to date snowfall 0.0 0.2  
Since 1 July snowfall 48.9 61.6  
Snow Depth 0.00 in    
Sea Level Pressure  
Sea Level Pressure 30.15 in    
Wind  
Wind Speed 3 mph (SSE)    
Max Wind Speed 10 mph    
Max Gust Speed 14 mph    
Visibility 9 miles    
Events Rain    
T = Trace of Precipitation, MM = Missing Value Source: NWS Daily Summary

Daily Weather History Graph

Daily Weather History Graph

Search for Another Location

Airport or City:

Trip Planner

Search our weather history database for the weather conditions in past years. The results will help you decide how hot, cold, wet, or windy it might be!

Date:

Astronomy

May. 14, 2012 Rise Set
Actual Time 5:22 AM EDT 8:02 PM EDT
Civil Twilight 4:50 AM EDT 8:35 PM EDT
Nautical Twilight 4:09 AM EDT 9:16 PM EDT
Astronomical Twilight 3:22 AM EDT 10:03 PM EDT
Moon 2:05 AM EDT (5/14) 2:11 PM EDT (5/14)
Length of Visible Light 15h 45m
Length of Day
14h 39m
Waning Crescent, 33% of the Moon is Illuminated
May 14
Waning Crescent
May 20
New
May 28
First Quarter
Jun 4
Full
Jun 11
Last Quarter

Hourly Weather History & Observations

Time (EDT) Temp. Dew Point Humidity Pressure Visibility Wind Dir Wind Speed Gust Speed Precip Events Conditions
12:51 AM 60.1 °F 48.9 °F 67% 30.12 in 10.0 mi NNE 4.6 mph - N/A   Clear
1:51 AM 57.0 °F 48.9 °F 74% 30.12 in 10.0 mi Calm Calm - N/A   Clear
2:51 AM 54.0 °F 50.0 °F 86% 30.12 in 10.0 mi Calm Calm - N/A   Clear
3:51 AM 55.0 °F 50.0 °F 83% 30.12 in 10.0 mi Calm Calm - N/A   Overcast
4:51 AM 54.0 °F 50.0 °F 86% 30.12 in 10.0 mi Calm Calm - N/A   Overcast
5:51 AM 55.9 °F 52.0 °F 87% 30.13 in 10.0 mi Calm Calm - 0.00 in Rain Light Rain
6:51 AM 55.9 °F 53.1 °F 90% 30.15 in 10.0 mi West 3.5 mph - 0.00 in   Overcast
7:51 AM 57.0 °F 53.1 °F 87% 30.17 in 10.0 mi North 3.5 mph - 0.00 in Rain Light Rain
8:51 AM 55.9 °F 54.0 °F 93% 30.20 in 4.0 mi South 3.5 mph - 0.01 in Rain Rain
9:51 AM 57.0 °F 53.1 °F 87% 30.17 in 9.0 mi NE 3.5 mph - 0.04 in Rain Light Rain
10:51 AM 57.9 °F 54.0 °F 87% 30.17 in 10.0 mi North 3.5 mph - 0.01 in Rain Light Rain
11:51 AM 60.1 °F 55.0 °F 83% 30.17 in 10.0 mi Calm Calm - 0.00 in   Mostly Cloudy
12:51 PM 62.1 °F 55.0 °F 78% 30.16 in 10.0 mi Calm Calm - N/A   Mostly Cloudy
1:39 PM 62.6 °F 55.4 °F 77% 30.15 in 10.0 mi Calm Calm - N/A   Overcast
1:51 PM 64.0 °F 55.9 °F 75% 30.15 in 10.0 mi Calm Calm - N/A   Overcast
2:00 PM 62.6 °F 55.4 °F 77% 30.15 in 10.0 mi SSW 5.8 mph - N/A   Overcast
2:10 PM 64.4 °F 57.2 °F 77% 30.15 in 10.0 mi South 5.8 mph - 0.00 in Rain Light Rain
2:51 PM 64.0 °F 57.0 °F 78% 30.14 in 10.0 mi South 8.1 mph - 0.00 in Rain Light Rain
3:17 PM 66.2 °F 55.4 °F 68% 30.13 in 10.0 mi South 4.6 mph - 0.00 in   Overcast
3:46 PM 64.4 °F 55.4 °F 73% 30.13 in 10.0 mi South 8.1 mph - 0.00 in   Overcast
3:51 PM 64.9 °F 55.9 °F 73% 30.14 in 10.0 mi South 9.2 mph - 0.00 in   Overcast
4:12 PM 64.4 °F 55.4 °F 73% 30.13 in 10.0 mi SSE 5.8 mph - N/A   Overcast
4:51 PM 63.0 °F 57.0 °F 81% 30.14 in 10.0 mi SE 4.6 mph - 0.00 in Rain Light Rain
5:51 PM 62.1 °F 57.9 °F 86% 30.13 in 10.0 mi ESE 4.6 mph - 0.00 in   Overcast
6:51 PM 61.0 °F 57.0 °F 87% 30.14 in 10.0 mi Calm Calm - N/A   Overcast
7:07 PM 60.8 °F 57.2 °F 88% 30.14 in 10.0 mi ESE 3.5 mph - N/A   Scattered Clouds
7:51 PM 59.0 °F 55.0 °F 87% 30.14 in 10.0 mi ESE 4.6 mph - 0.00 in Rain Light Rain
8:51 PM 57.0 °F 55.0 °F 93% 30.15 in 9.0 mi Calm Calm - 0.00 in Rain Light Rain
9:08 PM 57.2 °F 55.4 °F 94% 30.15 in 8.0 mi Calm Calm - 0.00 in Rain Light Rain
9:17 PM 57.2 °F 55.4 °F 94% 30.15 in 8.0 mi Calm Calm - 0.00 in Rain Light Rain
9:33 PM 57.2 °F 55.4 °F 94% 30.16 in 7.0 mi SSE 3.5 mph - 0.00 in Rain Light Rain
9:40 PM 57.2 °F 55.4 °F 94% 30.16 in 3.0 mi South 3.5 mph - 0.01 in Rain Rain
9:45 PM 55.4 °F 55.4 °F 100% 30.16 in 2.0 mi SSE 3.5 mph - 0.05 in Rain Heavy Rain
9:51 PM 55.9 °F 55.0 °F 97% 30.17 in 2.5 mi SE 3.5 mph - 0.07 in Rain Rain
9:59 PM 55.4 °F 55.4 °F 100% 30.16 in 3.0 mi Calm Calm - 0.01 in Rain Rain
10:27 PM 55.4 °F 55.4 °F 100% 30.16 in 6.0 mi South 6.9 mph - 0.02 in Rain Light Rain
10:40 PM 55.4 °F 55.4 °F 100% 30.16 in 5.0 mi SSE 4.6 mph - 0.03 in Rain Light Rain
10:51 PM 55.0 °F 55.0 °F 100% 30.16 in 5.0 mi SSE 3.5 mph - 0.03 in Rain Light Rain
11:51 PM 55.9 °F 55.0 °F 97% 30.16 in 5.0 mi South 4.6 mph - 0.02 in Rain Light Rain